WELCOME TO TCFT

Voted One Of The Best Flight Schools In The USA

 

 

Learn More

BECOME AN AIRLINE PILOT

Treasure Coast Flight Training is committed to serving all of your aviation needs as a full service flight academy, aircraft rental facility, and pilot shop

Contact Us

 

 

Questions About Becoming An Airline Pilot?

Get Started

 

 

What Our Graduates Say

 

 

The training I received with Treasure Coast Flight Training prepared me to become a professional pilot

 

Nathan Meisner

Pilot - Cessna Caravan - USA

Professional yet relaxed environment. Truly an enjoyable experience to fly with TCFT

 

Sophia

Certified Flight Instructor - China

The training I needed to get me to where I am now!

 

Enderson Rafael

Pilot - Go Airlines - Brazil

Thank you TCFT for making me an airline pilot!

 

Kyle Barrett

Pilot - GoJet Airlines - USA

Current Conditions

 

Metar

 

KSUA 141747Z 27006KT 7SM SKC 22/11 A3008

 

TAF

 

TAF KSUA 141735Z 1418/1518 24006KT P6SM SCT250 FM150000 00000KT P6SM SCT250 FM151500 21007KT P6SM SCT040 SCT250

 

 

Look No Further. Get Started Today

 

 

Enroll Now